Temperature
21 21 20 20 20 19 19 19 19 19 19 19 19 19 19 19 19 19 19 19 19 19 19 19 19 19 19 19 19 19 19 19 19 18 18 18 18 18 18 18 18 18 18
21 21 20 20 20 19 19 19 19 19 19 19 19 18 18 18 19 18 18 19 19 19 19 18 18 18 18 19 19 19 18 18 18 18 18 18 18 18 18 18 18 18 18
21 20 20 20 20 19 19 19 19 19 19 19 19 18 18 18 18 18 18 18 18 18 18 18 18 18 18 18 19 19 18 18 18 18 18 18 18 18 18 18 18 18 18
21 20 20 20 20 19 19 19 19 19 18 19 18 18 18 18 18 18 18 18 18 18 18 18 18 18 18 18 18 18 18 18 18 18 18 18 18 18 18 18 18 18 18
20 20 20 20 20 19 19 19 19 19 19 18 18 18 18 18 18 18 18 18 18 18 18 18 18 18 18 18 18 18 18 18 18 18 18 18 18 18 18 18 18 17 17
20 20 20 20 20 19 19 19 19 19 19 18 18 18 18 18 18 18 18 18 18 18 18 18 18 18 18 18 18 18 18 18 18 18 18 18 18 18 18 18 17 17 17
20 20 20 20 20 19 19 19 19 19 19 18 18 18 18 18 18 18 18 18 18 18 18 18 18 18 18 18 18 18 18 18 18 18 18 18 18 18 18 18 17 17 17
21 20 20 20 19 19 19 19 19 19 18 18 18 18 18 18 18 18 18 18 18 18 18 18 18 18 18 18 18 18 18 18 18 18 18 18 18 18 18 17 17 17 17
21 20 20 20 19 19 19 19 19 19 18 18 18 18 18 18 18 18 18 18 18 18 18 18 18 18 18 18 18 18 18 18 18 18 18 18 18 18 18 17 17 17 17
20 20 19 19 19 19 19 19 19 19 18 18 18 18 18 18 18 18 18 18 18 18 18 18 18 18 18 18 18 18 18 18 18 18 18 18 18 18 18 17 17 17 17
20 20 19 19 19 19 19 19 19 19 18 18 18 18 18 18 18 18 18 18 18 18 18 18 18 18 18 18 18 18 18 18 18 18 18 18 18 18 18 18 17 17 17
20 20 19 19 19 19 19 19 19 18 18 18 18 18 18 18 18 18 18 18 18 18 18 18 18 18 18 18 18 18 18 18 18 18 18 18 18 18 18 18 17 17 17
20 20 19 19 19 19 18 18 18 18 18 18 18 18 18 18 18 18 18 18 18 18 18 18 18 18 18 18 18 18 18 18 18 18 18 18 18 18 18 18 17 17 17
20 20 19 19 19 18 18 18 18 18 18 18 18 18 18 18 18 18 18 18 18 18 18 18 18 18 18 18 18 18 18 18 18 18 18 18 18 18 18 18 18 17 17
20 19 19 19 18 18 18 18 18 18 18 18 18 18 18 18 18 18 18 18 18 18 18 18 18 18 18 18 18 18 18 18 18 18 18 18 18 18 18 18 18 17 17
20 19 19 19 19 18 18 18 18 18 18 18 18 18 18 18 18 18 18 18 18 18 18 18 18 18 18 18 18 18 18 18 18 18 18 18 18 18 18 18 17 17 17
20 19 19 19 19 18 18 18 18 18 18 18 18 18 18 18 18 18 18 18 18 18 18 18 18 18 18 18 18 18 18 18 18 18 18 18 18 18 18 18 17 17 17
20 19 19 19 19 18 18 18 18 18 18 18 18 18 18 18 18 18 18 18 18 18 18 18 18 18 18 18 18 18 18 18 18 18 18 18 18 18 17 17 17 17 17
20 19 19 19 19 18 18 18 18 18 18 18 18 18 18 18 18 18 18 18 18 18 18 18 18 18 18 18 18 18 18 18 18 18 17 17 17 17 17 17 17 17 17
20 20 19 19 19 18 18 18 18 18 18 18 18 18 18 18 18 18 18 18 18 18 18 18 18 18 18 18 18 18 18 18 18 18 18 18 17 17 17 17 17 17 17
20 20 19 19 19 19 18 18 18 18 18 18 18 18 18 18 18 18 18 18 18 18 18 18 18 18 18 18 18 18 18 18 18 18 18 18 18 18 17 17 17 17 17
20 20 20 19 19 19 19 19 18 18 18 18 18 18 18 18 18 18 18 18 18 18 18 18 18 18 18 18 18 18 18 18 18 18 18 18 18 18 17 17 17 17 17
21 20 20 20 19 19 19 19 19 18 18 18 18 18 18 18 18 18 18 18 18 18 18 18 18 18 18 18 18 18 18 18 18 18 18 18 18 18 18 17 17 17 17
21 20 20 20 19 19 19 19 19 18 18 18 18 18 18 18 18 18 18 18 18 18 18 18 18 18 18 18 18 18 18 18 18 18 18 18 18 18 18 17 17 17 17
21 21 20 20 19 19 19 19 19 19 18 18 18 18 18 18 18 18 18 18 18 18 18 18 18 18 18 18 18 18 18 18 18 18 18 18 18 18 18 18 18 17 17
22 21 20 20 19 19 19 19 19 19 18 18 18 18 18 18 18 18 18 18 18 18 18 18 18 18 18 18 18 18 18 18 18 18 18 18 18 18 18 18 18 18 17
Wind_Speed
9 12 14 13 13 13 12 11 11 12 12 12 12 12 12 12 13 13 14 15 16 16 16 15 14 13 13 13 13 13 12 12 12 12 13 12 11 10 11 11 12 13 14
10 13 14 13 12 12 12 12 11 12 12 12 12 11 11 11 11 12 13 14 15 16 16 15 14 14 13 13 12 12 11 11 11 11 12 11 10 10 10 10 11 12 13
10 13 15 14 12 12 12 11 11 11 11 11 11 11 11 11 11 11 12 13 15 15 15 15 14 13 13 13 12 11 10 10 10 10 11 10 10 10 11 12 12 13 13
11 12 13 14 14 13 12 12 12 12 11 11 10 10 10 10 10 11 12 12 14 15 15 14 14 13 13 12 11 10 9 9 8 8 8 9 10 11 11 12 12 12 12
11 14 14 14 14 14 12 12 12 12 11 11 11 10 10 10 10 10 11 12 13 14 14 14 14 13 12 12 11 10 9 8 7 8 6 10 11 11 11 11 11 11 12
12 14 14 14 14 14 13 12 12 12 11 11 11 10 10 10 9 10 10 11 12 13 13 13 13 12 11 11 10 9 8 8 6 6 7 11 11 12 12 11 11 11 11
11 13 14 14 14 13 12 12 11 11 11 10 10 10 10 9 9 10 10 11 11 12 13 13 13 12 11 10 9 9 8 7 7 4 7 11 12 13 12 11 10 10 10
11 12 13 14 14 12 12 11 11 11 10 10 10 10 9 9 9 9 9 11 11 12 12 13 13 12 11 10 9 8 7 7 5 6 9 12 14 13 12 11 10 9 9
11 11 11 12 12 11 12 11 11 10 10 10 9 9 9 8 8 9 10 11 11 11 12 12 12 12 11 10 9 9 8 8 5 4 9 11 14 13 12 11 10 9 8
10 9 9 9 9 8 9 10 10 10 10 9 9 9 8 7 8 9 10 10 11 11 12 12 12 12 12 11 10 9 9 8 6 5 8 11 14 12 11 10 10 8 8
9 8 7 7 7 7 7 8 9 9 9 9 8 8 7 6 7 8 10 11 11 11 11 12 12 13 12 11 11 11 9 7 4 6 9 14 14 12 11 10 10 9 8
8 7 7 6 6 5 5 7 7 7 7 7 7 7 6 5 5 7 9 10 11 11 11 12 12 12 11 9 11 12 8 6 4 6 10 16 14 12 11 10 10 9 9
7 6 7 6 5 5 4 4 4 5 5 5 5 5 5 5 6 6 7 8 9 9 8 10 11 9 9 7 7 8 7 4 4 7 12 15 14 12 11 10 10 10 9
6 7 6 6 5 4 3 2 3 4 4 4 5 4 4 2 2 3 4 6 7 6 6 6 6 6 7 7 6 6 5 4 5 8 11 15 14 12 11 10 10 10 10
6 6 5 4 4 3 2 0 2 3 4 5 5 3 4 2 2 2 2 3 4 5 5 4 4 3 3 3 4 4 3 4 5 8 10 13 14 13 12 11 11 11 11
6 5 5 4 5 3 1 1 1 3 4 4 4 4 3 2 3 2 2 2 2 3 4 3 3 3 2 2 3 3 3 3 4 7 9 11 13 13 12 12 11 11 11
6 5 5 5 5 3 2 1 2 2 4 3 4 5 4 3 3 3 2 2 2 3 4 3 3 3 3 3 3 3 3 3 4 5 8 9 10 12 13 12 12 12 11
7 6 4 4 5 4 3 1 1 2 3 3 3 5 5 4 3 2 2 2 2 2 3 3 2 3 2 3 3 3 3 3 4 5 6 8 9 9 11 13 13 13 12
7 6 4 3 4 4 3 2 2 2 2 3 2 4 5 5 4 2 1 2 3 2 2 3 3 3 3 2 2 3 3 3 4 5 5 6 8 9 10 12 13 12 12
7 6 5 4 3 3 3 2 1 2 2 3 2 3 5 4 4 2 2 2 2 2 2 2 3 2 2 2 2 2 3 4 3 3 4 5 7 8 10 10 11 11 12
7 6 5 4 4 2 2 2 2 2 2 3 3 3 5 4 3 2 2 2 2 2 2 3 2 2 2 2 1 1 1 3 4 4 3 3 4 6 7 8 10 9 9
8 7 5 5 4 3 3 2 2 2 2 3 2 3 4 4 4 3 3 2 2 3 3 2 2 1 1 1 1 1 0 1 1 3 3 4 3 3 5 7 8 9 9
9 8 6 6 5 4 4 3 2 2 1 2 3 2 2 3 3 2 3 2 2 2 3 3 2 2 1 1 2 2 1 1 1 1 3 3 4 4 3 4 7 9 10
9 9 7 6 5 5 4 3 3 3 2 2 3 3 3 2 2 2 3 3 2 2 2 2 3 2 2 2 2 2 2 1 1 1 1 2 3 4 4 4 5 6 8
9 9 8 7 6 5 4 3 3 2 2 2 3 3 3 2 2 2 2 2 2 2 1 1 1 1 1 2 1 1 2 2 3 2 2 1 2 3 4 4 3 4 7
8 9 9 8 7 6 5 4 3 2 2 2 2 3 3 2 2 3 3 2 2 1 1 1 1 1 1 2 2 2 1 1 2 2 2 3 3 3 4 4 4 4 6
Wind_Direction
88 104 105 102 102 108 107 105 103 110 111 111 109 109 109 111 117 123 127 131 131 131 132 131 130 129 127 124 120 115 116 115 114 112 110 107 106 110 113 118 117 107 108
95 109 109 107 106 111 112 108 106 108 112 110 110 110 111 112 116 123 131 136 136 135 134 134 134 132 133 131 128 124 127 127 129 129 124 116 111 108 105 104 108 114 115
93 108 108 108 110 114 116 113 111 110 110 110 113 114 114 114 117 124 133 138 139 139 138 140 139 138 138 136 134 134 139 143 147 149 146 132 122 116 110 107 111 116 116
96 104 104 109 113 114 116 116 114 112 111 111 115 116 116 119 123 129 133 140 143 143 143 145 145 145 143 143 144 149 157 163 170 174 172 138 127 123 119 116 117 118 118
94 104 111 114 115 114 115 120 118 114 112 111 112 115 116 117 122 128 132 139 145 146 149 150 150 149 148 150 155 162 171 180 190 197 146 124 122 130 128 127 125 124 124
100 106 115 117 118 119 118 118 120 119 115 116 115 117 118 118 122 128 134 138 144 150 154 154 152 153 156 159 165 173 186 198 209 189 149 130 127 134 134 134 132 132 132
100 106 114 120 121 123 125 124 125 124 122 122 119 121 123 126 131 136 140 142 146 153 156 158 158 160 162 167 175 185 198 212 218 167 128 124 133 138 137 137 137 137 139
100 105 112 122 125 125 128 128 129 129 129 129 127 127 128 130 133 140 143 145 149 154 158 161 164 164 165 174 184 196 212 221 205 153 125 126 137 142 143 142 143 147 146
101 106 113 121 124 132 135 133 133 135 137 137 134 133 134 136 140 144 148 150 153 156 159 162 167 170 171 181 193 205 213 222 242 156 131 131 144 148 149 150 151 154 153
98 102 105 115 120 129 135 140 141 144 145 145 144 144 145 151 153 153 153 153 158 163 164 167 172 174 177 187 200 212 219 227 225 167 127 137 147 152 154 156 158 160 161
93 97 100 105 117 129 131 134 144 149 148 150 152 153 154 159 158 156 153 159 165 167 170 175 177 180 185 195 205 216 226 226 191 140 132 144 153 158 164 165 168 169 171
96 97 94 85 86 96 111 129 144 145 148 161 159 160 164 160 158 147 150 165 173 175 178 180 184 186 193 201 208 215 223 211 176 136 141 153 158 163 168 171 175 176 180
104 97 93 92 86 84 96 126 137 143 149 160 150 149 152 159 158 154 157 163 172 181 189 183 192 196 197 202 198 202 209 200 158 136 148 158 163 168 171 173 177 181 183
102 97 89 95 91 82 86 110 143 139 146 144 146 154 153 164 152 158 156 165 169 179 183 179 192 188 193 192 191 190 186 172 141 134 153 163 167 172 176 180 184 190 192
107 106 104 98 99 96 87 253 135 137 134 138 143 161 150 152 133 109 114 135 150 161 169 177 172 163 159 165 176 172 160 153 150 145 156 170 174 178 184 190 195 200 202
116 110 112 114 105 100 83 39 97 121 126 135 143 150 148 139 121 114 115 118 145 157 156 157 146 157 168 162 160 162 166 166 151 150 158 171 180 185 189 196 200 202 204
123 115 118 128 113 107 98 124 129 129 125 133 141 146 144 133 126 124 118 140 150 147 147 149 161 165 169 171 173 173 160 165 151 151 158 170 184 193 196 198 199 201 203
127 120 125 124 117 114 110 114 107 112 112 123 141 149 146 140 132 114 142 145 139 144 145 147 171 156 157 161 160 166 159 154 164 173 176 179 183 192 197 201 203 206 207
127 127 126 107 116 128 126 132 116 113 114 126 139 138 145 154 154 153 133 112 146 145 148 156 140 145 158 155 154 167 168 172 180 193 183 188 192 189 188 196 202 204 208
133 134 137 131 122 126 133 133 107 113 119 131 124 124 142 159 157 158 135 142 160 131 132 115 114 144 147 157 177 178 175 179 185 188 193 198 196 194 189 187 193 205 212
141 143 145 142 132 138 136 145 151 141 139 128 136 145 147 151 150 143 123 133 137 123 126 125 128 144 160 159 123 114 186 190 187 191 198 202 194 188 182 181 184 195 201
152 155 158 150 148 153 150 155 154 154 146 141 125 135 146 148 155 155 129 132 125 130 139 139 128 134 169 174 169 178 214 215 190 207 189 196 193 184 185 190 189 194 196
163 161 161 156 156 166 160 155 152 141 133 117 122 129 135 143 141 122 127 125 115 132 154 166 174 192 193 223 208 190 185 209 222 230 208 197 184 186 190 188 191 196 200
164 161 156 154 155 159 161 162 169 157 143 139 138 132 129 127 123 135 136 142 141 146 156 182 160 193 209 237 221 223 223 191 209 229 238 203 192 187 202 214 206 188 199
164 159 157 149 150 153 162 165 173 164 154 137 138 137 136 134 147 154 147 148 153 162 146 124 107 177 225 245 249 229 219 213 226 217 238 243 221 203 203 204 194 192 191
159 162 162 151 154 159 165 167 176 176 148 145 150 147 155 158 164 160 157 155 152 156 163 156 150 175 272 282 287 275 248 221 233 230 228 237 242 233 208 195 195 190 184
Height
1501 1500 1500 1500 1500 1501 1501 1502 1502 1503 1504 1506 1507 1509 1510 1512 1514 1516 1518 1521 1523 1526 1528 1531 1534 1536 1538 1540 1542 1544 1547 1549 1550 1552 1553 1555 1556 1557 1558 1559 1560 1561 1562
1502 1500 1499 1500 1501 1502 1503 1503 1504 1504 1506 1507 1509 1510 1512 1513 1515 1517 1519 1522 1524 1527 1529 1532 1535 1537 1539 1542 1544 1546 1548 1550 1552 1553 1554 1556 1557 1558 1559 1560 1561 1562 1563
1502 1501 1499 1500 1501 1502 1504 1505 1505 1506 1507 1508 1510 1511 1513 1514 1516 1518 1520 1522 1525 1528 1530 1533 1536 1538 1540 1543 1545 1547 1549 1551 1553 1554 1556 1557 1558 1559 1560 1561 1562 1563 1564
1503 1502 1501 1501 1502 1504 1505 1506 1507 1508 1508 1510 1511 1512 1514 1515 1516 1518 1520 1522 1525 1528 1531 1534 1536 1539 1541 1544 1546 1548 1550 1552 1554 1555 1557 1558 1559 1560 1561 1562 1563 1564 1565
1504 1503 1503 1503 1504 1505 1506 1507 1508 1509 1510 1511 1512 1513 1514 1515 1516 1518 1520 1522 1525 1528 1531 1534 1537 1540 1542 1544 1547 1549 1551 1553 1555 1556 1558 1559 1560 1561 1562 1563 1564 1565 1566
1506 1505 1504 1504 1505 1506 1508 1509 1510 1511 1512 1513 1514 1514 1515 1516 1517 1518 1520 1522 1525 1528 1531 1534 1537 1540 1543 1545 1547 1550 1552 1554 1555 1557 1558 1559 1560 1561 1562 1563 1564 1565 1567
1507 1506 1505 1506 1506 1507 1509 1510 1511 1512 1513 1514 1515 1516 1516 1517 1517 1519 1520 1522 1525 1527 1530 1534 1537 1540 1543 1545 1548 1550 1552 1554 1556 1558 1559 1560 1561 1562 1563 1564 1565 1566 1567
1508 1508 1507 1508 1508 1509 1511 1512 1513 1514 1514 1515 1516 1517 1518 1518 1518 1519 1520 1522 1525 1528 1531 1534 1538 1540 1543 1545 1548 1550 1552 1554 1556 1558 1559 1560 1561 1562 1563 1564 1565 1566 1567
1510 1510 1510 1510 1511 1511 1512 1513 1514 1515 1515 1516 1517 1518 1519 1519 1519 1520 1521 1523 1525 1528 1531 1534 1538 1541 1543 1546 1548 1550 1552 1554 1556 1558 1559 1560 1560 1562 1563 1564 1565 1566 1567
1512 1512 1512 1513 1513 1513 1514 1515 1515 1516 1516 1517 1518 1519 1520 1520 1520 1520 1522 1523 1526 1528 1531 1535 1538 1541 1543 1546 1548 1550 1552 1554 1556 1558 1558 1559 1560 1562 1562 1563 1564 1566 1567
1514 1514 1514 1515 1515 1515 1516 1516 1516 1517 1518 1518 1519 1520 1520 1521 1521 1522 1523 1524 1527 1529 1532 1535 1538 1541 1543 1546 1548 1550 1552 1554 1556 1557 1557 1559 1560 1561 1562 1563 1564 1565 1566
1516 1516 1516 1516 1516 1516 1517 1517 1517 1518 1519 1520 1520 1521 1521 1522 1522 1523 1524 1525 1527 1529 1532 1535 1538 1541 1543 1545 1548 1550 1552 1553 1555 1556 1557 1558 1559 1560 1561 1562 1563 1564 1565
1517 1518 1518 1518 1517 1517 1518 1518 1519 1519 1520 1521 1521 1522 1522 1522 1523 1524 1524 1525 1527 1529 1532 1535 1538 1540 1543 1545 1547 1549 1551 1553 1554 1555 1556 1557 1558 1559 1560 1562 1563 1564 1565
1518 1518 1519 1518 1518 1518 1518 1519 1520 1520 1521 1522 1522 1522 1523 1523 1523 1524 1524 1525 1527 1529 1532 1535 1538 1540 1543 1545 1547 1549 1551 1552 1554 1554 1555 1557 1558 1558 1560 1561 1562 1563 1564
1519 1519 1519 1519 1518 1518 1518 1519 1520 1521 1522 1523 1523 1523 1524 1524 1524 1525 1525 1526 1528 1530 1532 1535 1538 1540 1543 1544 1547 1549 1550 1552 1553 1554 1555 1556 1557 1557 1559 1560 1561 1562 1563
1519 1519 1519 1519 1519 1518 1518 1518 1520 1522 1522 1523 1524 1524 1524 1524 1525 1526 1527 1528 1529 1531 1533 1535 1538 1540 1542 1544 1546 1547 1549 1551 1552 1553 1554 1555 1556 1557 1557 1558 1559 1560 1561
1520 1520 1520 1520 1519 1519 1518 1518 1520 1522 1523 1524 1524 1525 1525 1526 1527 1527 1528 1529 1531 1532 1534 1536 1538 1540 1542 1543 1545 1546 1548 1550 1551 1552 1553 1554 1554 1555 1556 1557 1558 1559 1560
1520 1520 1520 1520 1520 1520 1520 1520 1522 1523 1524 1524 1525 1525 1526 1527 1528 1528 1529 1531 1532 1533 1535 1536 1538 1540 1541 1543 1544 1546 1547 1549 1550 1551 1552 1552 1553 1553 1554 1555 1556 1557 1558
1520 1520 1521 1521 1521 1521 1521 1522 1523 1524 1525 1525 1526 1526 1527 1528 1529 1530 1530 1531 1533 1534 1536 1537 1538 1540 1541 1542 1544 1545 1546 1547 1548 1550 1550 1551 1552 1552 1553 1554 1555 1555 1556
1520 1520 1521 1521 1522 1522 1522 1523 1524 1525 1526 1526 1527 1528 1528 1529 1530 1531 1532 1532 1534 1535 1536 1537 1538 1540 1541 1542 1543 1544 1545 1546 1547 1548 1549 1550 1550 1551 1551 1552 1553 1553 1554
1519 1520 1520 1521 1521 1522 1522 1523 1524 1525 1526 1527 1528 1529 1530 1530 1531 1531 1532 1533 1534 1535 1536 1537 1538 1539 1541 1542 1543 1544 1545 1546 1546 1547 1548 1548 1548 1549 1550 1551 1551 1551 1552
1518 1519 1519 1520 1521 1522 1523 1524 1525 1526 1527 1528 1529 1530 1530 1531 1531 1532 1532 1533 1534 1535 1536 1537 1538 1539 1541 1542 1543 1544 1544 1546 1545 1546 1546 1546 1547 1548 1548 1549 1549 1550 1550
1518 1518 1519 1520 1521 1521 1523 1524 1526 1527 1528 1529 1530 1530 1531 1531 1532 1532 1533 1533 1534 1535 1536 1537 1538 1539 1540 1541 1542 1543 1543 1543 1544 1545 1544 1545 1545 1546 1546 1547 1547 1547 1548
1517 1518 1518 1519 1520 1521 1523 1524 1525 1527 1528 1529 1530 1530 1531 1532 1532 1533 1533 1534 1535 1535 1536 1537 1538 1538 1539 1540 1541 1542 1543 1543 1543 1543 1544 1544 1544 1544 1544 1545 1545 1545 1546
1516 1517 1518 1518 1520 1521 1522 1524 1525 1526 1528 1529 1530 1530 1531 1532 1532 1533 1534 1534 1535 1535 1536 1536 1537 1538 1538 1539 1540 1540 1541 1542 1542 1542 1542 1542 1542 1542 1542 1542 1542 1543 1543
1515 1516 1517 1517 1519 1520 1522 1523 1524 1526 1527 1528 1529 1530 1531 1531 1532 1533 1533 1534 1534 1535 1535 1535 1536 1537 1537 1537 1538 1539 1540 1540 1540 1540 1540 1540 1540 1540 1540 1539 1539 1540 1541